Williamstown, MA

8:45 AM EST on February 13, 2016 (GMT -0500)
Harriman And West

Weather History for KAQW - July, 2013

Change the Weather History Date:

Friday, July 19, 2013

  Actual Average Record
Temperature  
Mean Temperature 80 °F -  
Max Temperature 93 °F 77 °F 93 °F (2013)
Min Temperature 68 °F 55 °F 53 °F (1998)
Cooling Degree Days 14    
Growing Degree Days 30 (Base 50)    
Moisture  
Dew Point 67 °F    
Average Humidity 68    
Maximum Humidity 96    
Minimum Humidity 44    
Precipitation  
Precipitation 0.10 in - - ()
Sea Level Pressure  
Sea Level Pressure 29.85 in    
Wind  
Wind Speed 2 mph (WSW)    
Max Wind Speed 10 mph    
Max Gust Speed 20 mph    
Visibility 9 miles    
Events Rain , Thunderstorm    
Averages and records for this station are not official NWS values.
T = Trace of Precipitation, MM = Missing Value Source: NWS Daily Summary

Daily Weather History Graph

Daily Weather History Graph

Search for Another Location

Airport or City:

Trip Planner

Search our weather history database for the weather conditions in past years. The results will help you decide how hot, cold, wet, or windy it might be!

Date:

Astronomy

Jul. 19, 2013 Rise Set
Actual Time 5:31 AM EDT 8:25 PM EDT
Civil Twilight 4:58 AM EDT 8:59 PM EDT
Nautical Twilight 4:15 AM EDT 9:41 PM EDT
Astronomical Twilight 3:26 AM EDT 10:30 PM EDT
Moon 5:25 PM EDT (7/19) 2:10 AM EDT (7/19)
Length of Visible Light 16h 00m
Length of Day
14h 53m
Waxing Gibbous, 86% of the Moon is Illuminated
Jul 19
Waxing Gibbous
Jul 22
Full
Jul 29
Last Quarter
Aug 6
New
Aug 14
First Quarter

Hourly Weather History & Observations

Time (EDT) Temp. Heat Index Dew Point Humidity Pressure Visibility Wind Dir Wind Speed Gust Speed Precip Events Conditions
12:52 AM 72.0 °F - 68.0 °F 87% 29.96 in 10.0 mi Calm Calm - N/A   Clear
1:52 AM 70.0 °F - 68.0 °F 93% 29.96 in 10.0 mi Calm Calm - N/A   Clear
2:52 AM 69.1 °F - 68.0 °F 96% 29.96 in 8.0 mi Calm Calm - N/A   Clear
3:52 AM 69.1 °F - 66.9 °F 93% 29.94 in 10.0 mi Calm Calm - N/A   Clear
4:52 AM 70.0 °F - 68.0 °F 93% 29.93 in 10.0 mi Calm Calm - N/A   Clear
5:52 AM 68.0 °F - 66.0 °F 93% 29.93 in 7.0 mi Calm Calm - N/A   Clear
6:52 AM 71.1 °F - 66.9 °F 87% 29.93 in 9.0 mi Calm Calm - N/A   Clear
7:52 AM 75.9 °F - 68.0 °F 76% 29.92 in 10.0 mi Calm Calm - N/A   Clear
8:52 AM 81.0 °F 84.1 °F 69.1 °F 67% 29.92 in 10.0 mi Calm Calm - N/A   Clear
9:52 AM 84.9 °F 87.1 °F 66.0 °F 53% 29.91 in 10.0 mi West 6.9 mph - N/A   Clear
10:52 AM 87.1 °F 90.6 °F 68.0 °F 53% 29.88 in 10.0 mi West 10.4 mph 19.6 mph N/A   Partly Cloudy
11:52 AM 90.0 °F 94.5 °F 69.1 °F 50% 29.86 in 10.0 mi Variable 5.8 mph - N/A   Partly Cloudy
12:52 PM 90.0 °F 92.8 °F 66.9 °F 46% 29.84 in 10.0 mi WSW 5.8 mph - N/A   Scattered Clouds
1:52 PM 91.9 °F 95.4 °F 66.9 °F 44% 29.81 in 10.0 mi West 6.9 mph 19.6 mph N/A   Partly Cloudy
2:52 PM 91.0 °F 95.2 °F 68.0 °F 47% 29.79 in 10.0 mi West 6.9 mph - N/A   Partly Cloudy
3:52 PM 91.9 °F 96.9 °F 69.1 °F 47% 29.77 in 10.0 mi West 5.8 mph 17.3 mph N/A   Partly Cloudy
4:52 PM 91.0 °F 95.6 °F 69.1 °F 48% 29.74 in 10.0 mi SW 8.1 mph - N/A   Partly Cloudy
5:52 PM 90.0 °F 93.6 °F 68.0 °F 48% 29.73 in 10.0 mi Variable 5.8 mph - N/A   Partly Cloudy
6:52 PM 88.0 °F 91.4 °F 68.0 °F 51% 29.74 in 10.0 mi West 4.6 mph - N/A   Partly Cloudy
7:52 PM 84.9 °F 88.2 °F 68.0 °F 57% 29.75 in 9.0 mi West 3.5 mph - N/A   Clear
8:52 PM 80.1 °F 83.2 °F 70.0 °F 71% 29.75 in 9.0 mi Calm Calm - N/A   Scattered Clouds
9:52 PM 80.1 °F 82.7 °F 68.0 °F 67% 29.77 in 10.0 mi Variable 3.5 mph - N/A   Partly Cloudy
10:52 PM 82.9 °F 85.0 °F 66.0 °F 56% 29.77 in 10.0 mi Calm Calm - N/A   Scattered Clouds
11:19 PM 78.8 °F - 59.0 °F 51% 29.83 in 10.0 mi Variable 6.9 mph - 0.00 in Rain , Thunderstorm Light Rain
11:40 PM 71.6 °F - 66.2 °F 83% 29.84 in 1.8 mi South 6.9 mph - 0.10 in Rain , Thunderstorm Heavy Thunderstorms and Rain
11:45 PM 71.6 °F - 68.0 °F 88% 29.84 in 3.0 mi South 4.6 mph - 0.10 in Rain , Thunderstorm Light Rain
11:52 PM 71.1 °F - 66.9 °F 87% 29.81 in 10.0 mi South 5.8 mph - 0.10 in Rain Light Rain